Weather in Athlone

Ireland     53°25′54″N   7°55′22″W
В апреле 2022 года жителям России запретили посещать сайт meteo.paraplan.net по решению Генеральной прокуратуры. Аудитория сайта уменьшилась в 10 раз. Владельцы сайта не видят смысла в поддержке погодного сервера в таких условиях. Сайт будет закрыт в октябре.
temp.,
°C
wind,
m/s
gust,
m/s
humid.,
%
clouds,
%
prec.,
mm/h
press.,
hPa
HPBL,
m
6 october, thu
thu601:00+11sw7157652 0.0 10181023
04:00+13wsw81584100 0.1 10181186
07:00+12wsw7139274 0.4 1019874
10:00+12sw61291100 0.2 1020910
13:00+13sw61293100 0.4 10201012
16:00+15sw8158795 0.6 10181294
19:00+13sw81584100 0.7 10181143
22:00+13sw81682100 0.1 10161170
7 october, fri
fri701:00+13sw91690100 0.9 10141228
04:00+12wsw81592100 1.8 10121093
07:00+11w613906 3.8 1011882
10:00+11wsw6118844 0.3 10131058
13:00+12w7127810 0.9 10141435
16:00+12w713804 1.1 10141472
19:00+10w613801 1.2 1016845
22:00+8w512890 0.0 1019432
8 october, sat
sat801:00+7wsw399537 0.0 1020210
04:00+6wsw379592 0.0 1021129
07:00+6sw369788 0.0 1021125
10:00+10sw378295 0.0 1022250
13:00+14sw466497 0.0 10211054
16:00+14ssw576785 0.1 10191316
19:00+12sse4967100 0.1 1017306
22:00+10sse51285100 0.0 1016449
9 october, sun
sun901:00+10sse61484100 0.0 1012786
04:00+12sse71482100 0.0 10071037
07:00+12sse91994100 3.4 10021311
10:00+13s101992100 3.3 9981239
13:00+14ssw71596100 7.2 996687
16:00+11nw9158799 0.6 1003930
19:00+9nw513711 0.7 1009688
22:00+6w4128518 0.0 1012324
10 october, mon
mon1001:00+8w41174100 0.0 1015475
04:00+10wnw41061100 0.0 1017769
07:00+10w3866100 0.0 1019299
10:00+10w377792 0.0 1022271
13:00+13wsw3465100 0.0 1023965
16:00+13wsw456796 0.1 10231118
19:00+10sw3685100 0.1 1023120
22:00+8s369015 0.0 1023118